Location: Mount Cross
(36.6390°N, 79.4878°W)
Time: 08:03:12
(UTC+00:00)

Vanguard 1 Rocket - Pass Details

Date: 30 March 2023
Orbit: 654 x 4221 km, 34.3° (Epoch: 01 June)

Event Time Altitude Azimuth Distance (km) Brightness Sun altitude
Rises 02:29:41 0° 237° (WSW) 8,288 12.5 -33.1°
Reaches altitude 10° 02:35:19 10° 236° (SW) 7,386 12.2 -34.0°
Maximum altitude 03:01:12 69° 159° (SSE) 3,815 10.1 -38.0°
Enters shadow 03:05:54 58° 111° (ESE) 3,733 10.0 -38.7°
Drops below altitude 10° 03:18:03 10° 81° (E) 5,154 - -40.4°
Sets 03:21:10 0° 79° (E) 5,794 - -40.8°
